User: anonymous   Login
Location: Saint Peter Port
(49.4500°N, 2.5330°W)
Time: 21:10:32
(UTC+00:00)
Language:

Cosmos 2242 Rocket - Orbit

View from above orbital plane
View from above orbital plane
View from above satellite
View from above satellite

Ground track
Ground track

The orbit data is extracted from the following two-line orbital elements,

1 22627U 93024B   14325.86567149  .00000450  00000-0  59276-4 0  4917
2 22627 082.5242 251.3018 0024701 155.1633 265.8760 14.77731393163551
Epoch (UTC): 21 November 2014 20:46:34
Eccentricity: 0.0024701
inclination: 82.5242°
perigee height: 619 km
apogee height: 654 km
right ascension of ascending node: 251.3018°
argument of perigee: 155.1633°
revolutions per day: 14.77731393
mean anomaly at epoch: 265.8760°
orbit number at epoch: 16355

The dashed part of the orbit path shows where the satellite is in the earth's shadow,  

DLR